Flag for U.S.A. Weather past 2 weeks in San Luis Obispo, California, U.S.A.

Now
74 °F

Sunny.


Feels Like: 77 °F
Forecast: 57 / 72 °F
Wind: 9 mph from Northwest

Location: San Luis Obispo County-Mc Chesney Field

Current Time: Jul 5, 2015 at 2:48:17 PM

Latest Report: Jul 5, 2015 at 1:56 PM


Visibility: 10 mi

Pressure: 29.97 "Hg

Humidity: 52%

Dew point: 55 °F

Location of San Luis ObispoLocation

Historic Weather in San Luis Obispo — Graph

°F

San Luis Obispo temperature yesterday

Maximum temperature yesterday: 76 °F (at 1:56 PM)
Minimum temperature yesterday: 58 °F (at 1:56 AM)
Average temperature yesterday: 65 °F

Past Weeks' High & Low Weather Summary

 TemperatureHumidityPressure
High87 °F (Jun 30, 12:56 PM)100% (Jun 21, 12:56 AM)30.05 "Hg (Jun 21, 12:56 AM)
Low49 °F (Jun 23, 2:56 AM)31% (Jun 20, 12:56 PM)29.84 "Hg (Jul 1, 3:56 AM)
Average64 °F72%29.94 "Hg
* Reported Jun 20 12:56 PM — Jul 5 12:56 PM, San Luis Obispo, Weather by CustomWeather, © 2015

Note: Actual official high and low records may vary slightly from our data, if they occured in-between our weather recording intervals... More about our weather records

Advertising

San Luis Obispo weather history for previous 24 hours

 ConditionsComfort  
Time TempWeatherWind HumidityBarometerVisibility
12:56 PM
Sun, Jul 5
73 °FSunny.7 mph55%29.98 "Hg10 mi
11:56 AM73 °FSunny.6 mph55%29.98 "Hg10 mi
10:56 AM67 °FScattered clouds.3 mph71%29.99 "Hg10 mi
9:56 AM65 °FBroken clouds.6 mph76%30.00 "Hg10 mi
8:56 AM63 °FMostly cloudy.3 mph78%30.01 "Hg10 mi
7:56 AM61 °FMostly cloudy.3 mph90%29.99 "Hg9 mi
6:56 AM61 °FLow clouds.3 mph87%29.97 "Hg10 mi
5:56 AM61 °FLow clouds.5 mph87%29.96 "Hg10 mi
4:56 AM61 °FLow clouds.5 mph87%29.94 "Hg10 mi
3:56 AM61 °FLow clouds.3 mph87%29.93 "Hg10 mi
2:56 AM61 °FLow clouds.No wind87%29.92 "Hg10 mi
1:56 AM61 °FOvercast.7 mph87%29.92 "Hg10 mi
12:56 AM61 °FOvercast.6 mph87%29.92 "Hg10 mi
11:56 PM
Sat, Jul 4
62 °FOvercast.7 mph83%29.92 "Hg10 mi
10:56 PM62 °FOvercast.6 mph83%29.93 "Hg10 mi
10:04 PM61 °FPassing clouds.6 mph87%29.93 "Hg10 mi
9:56 PM60 °FPassing clouds.7 mph90%29.92 "Hg10 mi
8:56 PM61 °FSunny.9 mph87%29.91 "Hg10 mi
7:56 PM63 °FSunny.15 mph81%29.90 "Hg10 mi
6:56 PM67 °FSunny.14 mph71%29.88 "Hg10 mi
5:56 PM71 °FSunny.10 mph61%29.87 "Hg10 mi
4:56 PM72 °FScattered clouds.13 mph59%29.87 "Hg10 mi
3:56 PM74 °FSunny.10 mph56%29.88 "Hg10 mi
2:56 PM74 °FScattered clouds.9 mph56%29.89 "Hg10 mi
Weather by CustomWeather, © 2015

See weather overviewHow to use our weather pages